Weather History for Agen, France

Change the Weather History Date:

Sunday, October 27, 2013

  Actual Average Record
Temperature  
Mean Temperature 60 °F -  
Max Temperature 73 °F 54 °F 78 °F (2005)
Min Temperature 48 °F 41 °F 32 °F (2007)
Degree Days  
Heating Degree Days 4    
Growing Degree Days 10 (Base 50)    
Moisture  
Dew Point 53 °F    
Average Humidity 77    
Maximum Humidity 100    
Minimum Humidity 44    
Precipitation  
Precipitation 0.00 in - - ()
Sea Level Pressure  
Sea Level Pressure 30.09 in    
Wind  
Wind Speed 3 mph ()    
Max Wind Speed 10 mph    
Max Gust Speed -    
Visibility 5.8 miles    
Events Fog    
Averages and records for this station are not official NWS values.
T = Trace of Precipitation, MM = Missing Value Source: Averaged Metar Reports

Daily Weather History Graph

Daily Weather History Graph

Search for Another Location

Airport:

Trip Planner

Search our weather history database for the weather conditions in past years. The results will help you decide how hot, cold, wet, or windy it might be!

Date:

Astronomy

Oct. 27, 2013 Rise Set
Actual Time 7:27 AM CET 5:54 PM CET
Civil Twilight 6:57 AM CET 6:24 PM CET
Nautical Twilight 6:24 AM CET 6:58 PM CET
Astronomical Twilight 5:50 AM CET 7:31 PM CET
Moon No Moon Rise 2:08 PM CET (10/27)
Length of Visible Light 11h 26m
Length of Day
10h 26m
Last Quarter, 45% of the Moon is Illuminated
Oct 27
Last Quarter
Nov 3
New
Nov 10
First Quarter
Nov 17
Full
Nov 25
Last Quarter

Hourly Weather History & Observations

Time (CET) Temp. Dew Point Humidity Pressure Visibility Wind Dir Wind Speed Gust Speed Precip Events Conditions
12:00 AM 60.8 °F 59.0 °F 94% 30.06 in 6.2 mi Variable 1.2 mph - N/A   Unknown
12:30 AM 60.8 °F 59.0 °F 94% 30.06 in 6.2 mi Variable 2.3 mph - N/A   Unknown
1:00 AM 60.8 °F 57.2 °F 88% 30.06 in 6.2 mi ESE 2.3 mph - N/A   Unknown
1:30 AM 60.8 °F 57.2 °F 88% 30.06 in 6.2 mi Variable 1.2 mph - N/A   Unknown
2:00 AM 57.2 °F 55.4 °F 94% 30.06 in 6.2 mi East 2.3 mph - N/A   Unknown
2:30 AM 55.4 °F 53.6 °F 94% 30.06 in 6.2 mi Calm Calm - N/A   Unknown
2:00 AM 55.4 °F 53.6 °F 94% 30.06 in 6.2 mi ESE 3.5 mph - N/A   Unknown
2:30 AM 53.6 °F 51.8 °F 94% 30.06 in 6.2 mi ESE 3.5 mph - N/A   Unknown
3:00 AM 55.4 °F 53.6 °F 94% 30.06 in 6.2 mi East 5.8 mph - N/A   Unknown
3:30 AM 55.4 °F 53.6 °F 94% 30.04 in 6.2 mi Variable 3.5 mph - N/A   Unknown
4:00 AM 53.6 °F 51.8 °F 94% 30.04 in 6.2 mi East 3.5 mph - N/A   Unknown
4:30 AM 53.6 °F 53.6 °F 100% 30.04 in 6.2 mi ENE 3.5 mph - N/A   Unknown
5:00 AM 53.6 °F 51.8 °F 94% 30.06 in - Calm Calm - N/A Fog Fog
5:30 AM 53.6 °F 51.8 °F 94% 30.06 in - East 3.5 mph - N/A   Partly Cloudy
6:00 AM 53.6 °F 51.8 °F 94% 30.06 in 0.2 mi Calm Calm - N/A Fog Patches of Fog
6:30 AM 51.8 °F 50.0 °F 94% 30.09 in 4.3 mi Calm Calm - N/A   Partly Cloudy
7:00 AM 50.0 °F 48.2 °F 94% 30.09 in 0.3 mi Calm Calm - N/A Fog Fog
7:30 AM 48.2 °F 46.4 °F 93% 30.12 in 0.7 mi Variable 1.2 mph - N/A   Mist
8:00 AM 51.8 °F 50.0 °F 94% 30.12 in 6.2 mi East 3.5 mph - N/A   Unknown
8:30 AM 55.4 °F 53.6 °F 94% 30.12 in 6.2 mi ENE 5.8 mph - N/A   Unknown
9:00 AM 57.2 °F 57.2 °F 100% 30.15 in 6.2 mi Variable 2.3 mph - N/A   Unknown
9:30 AM 62.6 °F 53.6 °F 72% 30.15 in 6.2 mi SW 4.6 mph - N/A   Unknown
10:00 AM 66.2 °F 53.6 °F 64% 30.15 in 6.2 mi SW 5.8 mph - N/A   Unknown
10:30 AM 68.0 °F 51.8 °F 56% 30.15 in 6.2 mi SW 8.1 mph - N/A   Unknown
11:00 AM 68.0 °F 51.8 °F 56% 30.15 in 6.2 mi WSW 10.4 mph - N/A   Unknown
11:30 AM 69.8 °F 51.8 °F 53% 30.15 in 6.2 mi WSW 8.1 mph - N/A   Unknown
12:00 PM 71.6 °F 51.8 °F 50% 30.15 in 6.2 mi WSW 9.2 mph - N/A   Unknown
12:30 PM 71.6 °F 51.8 °F 50% 30.15 in 6.2 mi SW 9.2 mph - N/A   Unknown
1:00 PM 71.6 °F 50.0 °F 46% 30.12 in 6.2 mi WSW 5.8 mph - N/A   Unknown
1:30 PM 73.4 °F 50.0 °F 44% 30.12 in 6.2 mi SW 5.8 mph - N/A   Unknown
2:00 PM 73.4 °F 50.0 °F 44% 30.12 in 6.2 mi WSW 6.9 mph - N/A   Unknown
2:30 PM 71.6 °F 51.8 °F 50% 30.12 in 6.2 mi West 5.8 mph - N/A   Unknown
3:00 PM 71.6 °F 53.6 °F 53% 30.12 in 6.2 mi WNW 8.1 mph - N/A   Unknown
3:30 PM 69.8 °F 53.6 °F 56% 30.12 in 6.2 mi WNW 6.9 mph - N/A   Unknown
4:00 PM 69.8 °F 53.6 °F 56% 30.12 in 6.2 mi WNW 4.6 mph - N/A   Unknown
4:30 PM 69.8 °F 53.6 °F 56% 30.12 in 6.2 mi West 3.5 mph - N/A   Unknown
5:00 PM 69.8 °F 51.8 °F 53% 30.12 in 6.2 mi Variable 2.3 mph - N/A   Unknown
5:30 PM 68.0 °F 53.6 °F 60% 30.12 in 6.2 mi Calm Calm - N/A   Unknown
6:00 PM 64.4 °F 51.8 °F 64% 30.12 in 6.2 mi SE 3.5 mph - N/A   Unknown
6:30 PM 59.0 °F 51.8 °F 77% 30.09 in 6.2 mi Variable 2.3 mph - N/A   Unknown
7:00 PM 57.2 °F 51.8 °F 82% 30.09 in 6.2 mi SE 5.8 mph - N/A   Unknown
7:30 PM 57.2 °F 51.8 °F 82% 30.09 in 6.2 mi East 4.6 mph - N/A   Unknown
8:00 PM 57.2 °F 51.8 °F 82% 30.06 in 6.2 mi East 5.8 mph - N/A   Unknown
8:30 PM 55.4 °F 50.0 °F 82% 30.06 in 6.2 mi East 3.5 mph - N/A   Unknown
9:00 PM 53.6 °F 51.8 °F 94% 30.06 in 6.2 mi ESE 3.5 mph - N/A   Unknown
9:30 PM 55.4 °F 51.8 °F 88% 30.04 in 6.2 mi ESE 5.8 mph - N/A   Unknown
10:00 PM 53.6 °F 50.0 °F 88% 30.04 in 6.2 mi East 5.8 mph - N/A   Unknown
10:30 PM 55.4 °F 51.8 °F 88% 30.04 in 6.2 mi East 3.5 mph - N/A   Unknown